Regional Weather Roundup
Issued by NWS Newport/Morehead, NC

Current Version | Previous Version | Text Only | Print | Product List | Glossary On
Versions: 1 2 3 4 5 6 7 8 9 10 11 12 13 14 15 16 17 18 19 20 21 22 23 24 25 26 27 28 29 30 31 32 33 34 35 36 37 38 39 40 41 42 43 44 45 46 47 48 49 50
000
ASUS42 KMHX 211914
RWRMHX
WEATHER ROUNDUP FOR EASTERN NORTH CAROLINA
NATIONAL WEATHER SERVICE NEWPORT/MOREHEAD CITY NC
300 PM EDT MON AUG 21 2017

NOTE: "FAIR" INDICATES FEW OR NO CLOUDS BELOW 12,000 FEET
WITH NO SIGNIFICANT WEATHER AND/OR OBSTRUCTIONS TO VISIBILITY

NCZ015>017-031-032-045>047-102-103-212000-
NORTH COAST

CITY           SKY/WX    TMP DP  RH WIND       PRES   REMARKS
EDENTON        SUNNY     85  76  75 CALM      30.19F
ELIZABETH CITY SUNNY     83  71  67 SE6       30.19F
KITTY HAWK     CLEAR     81  75  81 CALM      30.18F
MANTEO         MOSUNNY   82  75  79 E7        30.19F

$$

NCZ045>047-081-094-103-104-212000-
CENTRAL COAST

CITY           SKY/WX    TMP DP  RH WIND       PRES   REMARKS
FRISCO         CLOUDY    85  77  77 S7        30.18F

$$

NCZ095-097-098-100-101-212000-
SOUTHERN COAST

CITY           SKY/WX    TMP DP  RH WIND       PRES   REMARKS
BEAUFORT       PTSUNNY   81  77  88 SE3       30.17F
CEDAR ISLAND   NOT AVBL
JACKSONVILLE   PTSUNNY   83  77  82 S6        30.17F
PINEY ISLAND   MOCLDY   N/A N/A N/A E6        30.17F
WILMINGTON     PTSUNNY   82  74  76 E6        30.17F


$$

NCZ011>013-027>030-043-044-078>080-089-090>093-098-212000-
COASTAL PLAIN

CITY           SKY/WX    TMP DP  RH WIND       PRES   REMARKS
AHOSKIE          N/A     83  73  71 CALM      30.19F
CLINTON        SUNNY     86  72  62 E3        30.17F
ELIZABETHTOWN  NOT AVBL
GOLDSBORO      MOSUNNY   85  75  71 E5        30.16F
GREENVILLE     SUNNY     86  70  58 E6        30.19F
HAVELOCK       PTSUNNY   83  75  77 SE10      30.18F
KENANSVILLE    SUNNY     82  72  69 CALM      30.18F
KINSTON        MOSUNNY   88  70  55 E6        30.17F
NEW BERN       CLOUDY    83  75  77 SE6       30.18F
RICHLANDS      SUNNY     84  76  76 SE3       30.17F
ROCKY MOUNT    SUNNY     82  74  76 CALM      30.18F
WASHINGTON     SUNNY     84  70  63 SE6       30.18F
WHITEVILLE     MOSUNNY   85  75  71 SE6       30.16F

$$

AMZ130-135-150-152-154-156-158-170-250-252-270-ANZ085-086-088-633-658-670-212000-
MARINE OBSERVATIONS

STATION/POSITION TIME  TEMP    WIND        PRES    WAVE   SWELL
                       AIR SEA DIR/SP/G            HT/PER HT/PER
                 (UTC) (F)     (DEG/KT/KT) (MB)    (FT/S) (FT/S)
CHESAPEAKE LIGHT NOT AVBL
64 E VA BEACH    1850   79 80  100/  4/  6 1023.1    2/ 8   2/ 8
DUCK             1848   81 78  110/  7/  7 1021.9
2 E DUCK         1830      82                N/A     2/11
OREGON INLET     1836   81 77   60/  5/  7 1022.2
13E OREGON INLT  1848      81                N/A     2/ 8   2/ 8
HATTERAS CG      1848   83 80  120/  5/  7 1022.1
DIAMOND BUOY     1850   82 85  180/  2/  4 1021.9    2/ 8   2/ 8
CAPE LOOKOUT     1900   80     130/  2/  3 1021.6
BEAUFORT LAB     1848   81 81  130/  4/  5 1021.4
30 SE NEW RVR IN 1808   80 84   80/  8/ 10 1022.3
30 SE NEW RVR IN 1843      84                N/A     3/10   2/11
27 SE WRIGHTSVLE 1808   81 84   80/  8/ 10 1022.3
5 SE WRIGHTSVLE  1808   83 84   90/ 10/ 14 1022.3
225 S CAPE HAT   1850   83 85  110/  6/  8 1021.7    3/ 8   3/ 8
41 SE CHARLESTON 1900   82 85  110/  4/  6 1020.4

$$



USA.gov is the U.S. government's official web portal to all federal, state and local government web resources and services.